Location: Brabourne
(51.1333°N, 1.0000°E)
Time: 00:13:32
(UTC+00:00)

NOSS 2-3 (E) - Visible Passes

Search period start: 24 October 2021 00:00
Search period end: 03 November 2021 00:00
Orbit: 544 x 1667 km, 63.3° (Epoch: 21 October)

Date Brightness Start Highest point End Pass type
(mag) Time Alt. Az. Time Alt. Az. Time Alt. Az.
24 Oct 4.7 17:24:58 10° S 17:28:15 24° ESE 17:31:55 10° ENE visible
24 Oct 4.2 19:14:19 10° WSW 19:18:26 56° NW 19:19:46 41° NNE visible
24 Oct 6.6 21:06:29 10° WNW 21:07:13 13° WNW 21:07:13 13° WNW visible
25 Oct 3.5 18:29:19 10° SW 18:33:25 86° NW 18:36:29 22° NE visible
25 Oct 5.8 20:21:02 10° WNW 20:23:54 25° NW 20:23:54 25° NW visible
26 Oct 3.7 17:44:35 10° SSW 17:48:34 57° SE 17:53:07 11° NE visible
26 Oct 5.2 19:35:37 10° W 19:39:36 33° NNW 19:40:33 31° N visible
26 Oct 7.0 21:27:56 10° NW 21:27:59 10° NW 21:27:59 10° NW visible
27 Oct 4.6 18:50:18 10° WSW 18:54:23 45° NNW 18:57:07 23° NNE visible
27 Oct 6.3 20:42:36 10° WNW 20:44:33 19° NW 20:44:33 19° NW visible
28 Oct 3.9 18:05:10 10° SW 18:09:17 66° NW 18:13:38 13° NE visible
28 Oct 5.7 19:57:10 10° WNW 20:01:01 25° NNW 20:01:04 25° NNW visible
29 Oct 3.6 17:20:16 10° SW 17:24:20 78° SE 17:29:15 10° NE visible
29 Oct 5.4 19:11:44 10° W 19:15:39 29° NNW 19:17:33 23° NNE visible
29 Oct 6.7 21:03:56 10° NW 21:04:58 15° NW 21:04:58 15° NW visible
30 Oct 4.9 18:26:20 10° W 18:30:22 37° NNW 18:34:00 16° NNE visible
30 Oct 6.1 20:18:40 10° NW 20:21:25 21° NNW 20:21:25 21° NNW visible
31 Oct 4.3 17:41:05 10° WSW 17:45:11 52° NW 17:50:13 10° NE visible
31 Oct 5.7 19:33:18 10° WNW 19:37:09 24° N 19:37:50 23° N visible
31 Oct 7.0 21:24:57 10° NW 21:25:15 11° NW 21:25:15 11° NW visible
01 Nov 3.7 16:56:02 10° SW 17:00:09 79° NW 17:05:09 10° NE visible
01 Nov 5.5 18:47:51 10° WNW 18:51:43 26° NNW 18:54:14 19° NNE visible
01 Nov 6.4 20:39:54 10° NW 20:41:39 18° NNW 20:41:39 18° NNW visible
02 Nov 5.2 18:02:25 10° W 18:06:22 32° NNW 18:10:37 12° NE visible
02 Nov 5.9 19:54:42 10° NW 19:58:02 23° N 19:58:02 23° N visible
